This is the latest recevied weather packets stored in our database for station/object HS0TK-1. If no packets are shown the sender has not sent any weather packets the latest 10 day(s).
| Time | Temp. | Humidity | Pressure | Rain* | Wind** | Luminosity | Snow |
|---|---|---|---|---|---|---|---|
| 1777710958 | 31.67° C | 35% | 1005 hPa | - | - | 0 W/m² | - |
| 1777710012 | 31.67° C | 35% | 1006 hPa | - | - | 0 W/m² | - |
| 1777709066 | 31.67° C | 36% | 1006 hPa | - | - | 0 W/m² | - |
| 1777708139 | 31.67° C | 37% | 1006 hPa | - | - | 0 W/m² | - |
| 1777707206 | 31.67° C | 37% | 1006 hPa | - | - | 0 W/m² | - |
| 1777707144 | 31.67° C | 37% | 1006 hPa | - | - | 0 W/m² | - |
| 1777706216 | 31.67° C | 36% | 1007 hPa | - | - | 0 W/m² | - |
| 1777705270 | 31.67° C | 38% | 1007 hPa | - | - | 0 W/m² | - |
| 1777704335 | 31.67° C | 38% | 1007 hPa | - | - | 0 W/m² | - |
| 1777703395 | 31.11° C | 39% | 1008 hPa | - | - | 0 W/m² | - |
| 1777702467 | 31.11° C | 39% | 1008 hPa | - | - | 0 W/m² | - |
| 1777701540 | 31.11° C | 39% | 1008 hPa | - | - | 0 W/m² | - |
| 1777700609 | 31.11° C | 41% | 1009 hPa | - | - | 0 W/m² | - |
| 1777699681 | 31.11° C | 42% | 1009 hPa | - | - | 0 W/m² | - |
| 1777698755 | 30.56° C | 43% | 1009 hPa | - | - | 0 W/m² | - |
| 1777697802 | 31.11° C | 44% | 1009 hPa | - | - | 0 W/m² | - |
| 1777696875 | 31.11° C | 43% | 1010 hPa | - | - | 0 W/m² | - |
| 1777695942 | 32.22° C | 40% | 1010 hPa | - | - | 0 W/m² | - |
| 1777695014 | 32.22° C | 43% | 1010 hPa | - | - | 0 W/m² | - |
| 1777694069 | 31.67° C | 48% | 1010 hPa | - | - | 0 W/m² | - |
| 1777693140 | 32.78° C | 55% | 1010 hPa | - | - | 0 W/m² | - |
| 1777692214 | 33.33° C | 61% | 1010 hPa | - | - | 0 W/m² | - |
| 1777692151 | 33.33° C | 61% | 1010 hPa | - | - | 0 W/m² | - |
| 1777691223 | 32.78° C | 61% | 1010 hPa | - | - | 0 W/m² | - |
| 1777690291 | 32.78° C | 62% | 1010 hPa | - | - | 0 W/m² | - |
* Rain since midnight (hover to see other rain measurements)
** Current wind speed in m/s (hover to see current wind gust speed)